Location: Beutels
(47.8767°N, 9.8584°E)
Time: 23:58:25
(UTC+00:00)

USA 59 Rocket - Pass Details

Date: 19 May 2025
Orbit: 373 x 1695 km, 63.3° (Epoch: 22 June)

Event Time Altitude Azimuth Distance (km) Brightness Sun altitude
Exits shadow 22:10:36 40° 57° (ENE) 600 0.1 -20.5°
Drops below altitude 10° 22:12:38 10° 45° (NE) 1,403 2.3 -20.6°
Sets 22:14:33 0° 43° (NE) 2,243 3.4 -20.7°
